Kezdőlap
METAR-TAF:

METAR-TAF

Repülőterek :

Taylor County Airport

Medford, Wisconsin, Amerikai Egyesült Államok

földrajzi szélesség: 45-06-04N, földrajzi hosszúság: 090-18-12W, magasság: 448 m

Jelenlegi meteorológiai megfigyelések

A jelentés 25 perccel ezelõtt készült, 07:35 UTC
Szélcsend
Hőmérséklet 16°C
Páratartalom 100%
Légköri nyomás 1018 hPa
Látótávolság: 4.8 km
Borult 3600 lábon

METAR: KMDZ 070735Z AUTO 00000KT 3SM OVC036 16/16 A3005 RMK AO2 LTG DSNT SW T01630163 PWINO

Idő: 03:00 (08:00 UTC)


TAF: hiányzik

Meteorológiai megfigyelések és előrejelzések több, mint 4000 repülőtéren (METAR és TAF jelentéseket).

A térképen piros és sárga pontok jelzik az elérhető meteorológiai állomásokat.

Mozgassa az egeret a pont fölött, hogy megjelenjen az állomás neve.

Azután kattintson az időjárási megfigyelések és előrejelzések megtekintéséhez.

A térkép megváltoztatása: kattintson a fekete keresztel jelölt zöld gombra ráközelítéshez, a vonallal jelölt zöld gombra távolításhoz, vagy a zöld nyilakra a szomszédos térképek eléréséhez.


METAR-TAF: